Latest Coastal Weather Observations for Coconut Island

IDQ60701

Issued at 8:21 pm EST Saturday 24 June 2017 (issued every 10 minutes, with the page automatically refreshed every 10 minutes)

About coastal observations | Map of coastal stations | Coastal observations for QLD | Marine services | Other Formats
Station Details ID: 027054 Name: COCONUT ISLAND Lat: -10.05 Lon: 143.07 Height: 3.5 m
Data from the previous 72 hours. | See also: Recent months at Coconut Island
Date/Time
EST
Temp
°C
Wind Pressure Rain since
9am
mm
Weather Cloud Vis
km
Sea
Height
m
Swell
Dir  Spd
kts
Gust
kts
hPa Trend Height
m
Period
s
Dir
24/08:00pm 25.4 SSE 4 7 1010.8 - 0.0 - - - - - - -
24/07:30pm 25.2 SSE 4 7 1010.6 - 0.0 - - - - - - -
24/07:00pm 25.3 SSE 4 6 1010.2 - 0.0 - - - - - - -
24/06:30pm 25.5 SSE 4 6 1009.8 - 0.0 - - - - - - -
24/06:00pm 25.9 SSE 4 7 1009.5 - 0.0 - - - - - - -
24/05:30pm 26.2 SSE 4 7 1009.4 - 0.0 - - - - - - -
24/05:00pm 26.6 SSE 4 6 1009.4 - 0.0 - - - - - - -
24/04:30pm 27.5 SSE 3 5 1009.1 - 0.0 - - - - - - -
24/04:00pm 27.9 SSE 3 5 1009.2 - 0.0 - - - - - - -
24/03:30pm 28.3 SSE 3 5 1009.1 - 0.0 - - - - - - -
24/03:00pm 28.1 SSE 3 5 1009.2 - 0.0 - - - - - - -
24/02:30pm 28.6 SSE 3 6 1009.5 - 0.0 - - - - - - -
24/02:00pm 28.6 SSE 3 5 1009.7 - 0.0 - - - - - - -
24/01:30pm 28.5 SE 3 4 1010.0 - 0.0 - - - - - - -
24/01:00pm 28.0 SSE 2 4 1010.4 - 0.0 - - - - - - -
24/12:30pm 28.5 SSE 2 5 1010.5 - 0.0 - - - - - - -
24/12:00pm 29.2 SSE 2 4 1010.8 - 0.0 - - - - - - -
24/11:30am 29.1 SSE 2 5 1011.0 - 0.0 - - - - - - -
24/11:00am 28.2 SE 2 7 1011.5 - 0.0 - - - - - - -
24/10:30am 27.8 SSE 1 4 1011.7 - 0.0 - - - - - - -
24/10:00am 27.1 SE 2 5 1011.8 - 0.0 - - - - - - -
24/09:30am 26.8 SSE 2 4 1011.8 - 0.0 - - - - - - -
24/09:00am 26.4 SE 2 7 1011.8 - 0.2 - - - - - - -
24/08:30am 25.8 SSE 3 7 1011.5 - 0.2 - - - - - - -
24/08:00am 25.7 SSE 3 8 1011.1 - 0.2 - - - - - - -
24/07:30am 25.2 SE 3 6 1010.8 - 0.2 - - - - - - -
24/07:00am 25.0 SE 3 8 1010.7 - 0.2 - - - - - - -
24/06:30am 24.9 SSE 2 5 1010.4 - 0.2 - - - - - - -
24/06:00am 24.8 SSE 3 7 1010.3 - 0.2 - - - - - - -
24/05:30am 24.9 SSE 2 4 1010.2 - 0.2 - - - - - - -
24/05:00am 25.0 SSE 3 5 1010.2 - 0.2 - - - - - - -
24/04:30am 25.0 SE 3 6 1009.9 - 0.2 - - - - - - -
24/04:00am 25.2 SE 3 8 1010.1 - 0.2 - - - - - - -
24/03:30am 25.4 SE 3 7 1010.2 - 0.2 - - - - - - -
24/03:00am 25.3 SE 3 7 1010.3 - 0.2 - - - - - - -
24/02:30am 25.2 SSE 3 7 1010.4 - 0.2 - - - - - - -
24/02:00am 25.4 SE 3 8 1010.6 - 0.2 - - - - - - -
24/01:30am 25.4 SSE 3 10 1011.1 - 0.2 - - - - - - -
24/01:00am 25.5 SE 3 8 1011.5 - 0.2 - - - - - - -
24/12:30am 25.4 SE 4 11 1011.8 - 0.2 - - - - - - -
24/12:00am 25.3 SSE 3 5 1012.0 - 0.2 - - - - - - -
 
Date/Time
EST
Temp
°C
Wind Pressure Rain since
9am
mm
Weather Cloud Vis
km
Sea
Height
m
Swell
Dir  Spd
kts
Gust
kts
hPa Trend Height
m
Period
s
Dir
23/11:30pm 25.7 SSE 4 7 1012.2 - 0.2 - - - - - - -
23/11:00pm 25.7 SSE 3 6 1012.4 - 0.2 - - - - - - -
23/10:30pm 25.6 SSE 4 8 1012.5 - 0.2 - - - - - - -
23/10:00pm 25.4 SSE 4 7 1012.7 - 0.2 - - - - - - -
23/09:30pm 25.1 SSE 4 7 1012.7 - 0.2 - - - - - - -
23/09:00pm 25.3 SSE 4 9 1012.5 - 0.2 - - - - - - -
23/08:30pm 25.7 SSE 3 6 1012.2 - 0.2 - - - - - - -
23/08:00pm 25.6 SSE 3 6 1012.0 - 0.2 - - - - - - -
23/07:30pm 25.2 SSE 4 7 1011.8 - 0.2 - - - - - - -
23/07:00pm 25.4 SSE 3 5 1011.4 - 0.2 - - - - - - -
23/06:30pm 25.5 SSE 4 6 1011.2 - 0.2 - - - - - - -
23/06:00pm 25.7 SSE 4 7 1010.9 - 0.2 - - - - - - -
23/05:30pm 25.9 SSE 4 7 1010.6 - 0.2 - - - - - - -
23/05:00pm 25.9 SSE 3 6 1010.6 - 0.2 - - - - - - -
23/04:30pm 25.8 SSE 3 6 1010.5 - 0.2 - - - - - - -
23/04:00pm 26.2 SE 4 11 1010.6 - 0.2 - - - - - - -
23/03:30pm 28.2 SSE 3 6 1010.5 - 0.2 - - - - - - -
23/03:00pm 27.9 SSE 4 6 1010.5 - 0.2 - - - - - - -
23/02:30pm 27.5 SSE 3 5 1010.7 - 0.2 - - - - - - -
23/02:00pm 27.1 SSE 3 8 1011.0 - 0.2 - - - - - - -
23/01:30pm 27.2 SSE 3 5 1011.5 - 0.2 - - - - - - -
23/01:00pm 27.7 SSE 3 6 1012.0 - 0.2 - - - - - - -
23/12:30pm 29.3 SSE 3 6 1012.2 - 0.2 - - - - - - -
23/12:00pm 28.2 SSE 3 6 1012.4 - 0.2 - - - - - - -
23/11:30am 28.3 SSE 3 6 1012.8 - 0.2 - - - - - - -
23/11:00am 27.8 SSE 3 7 1013.1 - 0.2 - - - - - - -
23/10:30am 27.6 SSE 3 7 1013.3 - 0.0 - - - - - - -
23/10:00am 26.9 SSE 3 5 1013.3 - 0.0 - - - - - - -
23/09:30am 26.9 SSE 3 8 1013.2 - 0.0 - - - - - - -
23/09:00am 26.4 SSE 3 5 1013.2 - 2.2 - - - - - - -
23/08:30am 25.7 SSE 4 7 1013.1 - 2.2 - - - - - - -
23/08:00am 25.5 SSE 4 6 1012.6 - 2.2 - - - - - - -
23/07:30am 25.0 SSE 3 5 1012.3 - 2.2 - - - - - - -
23/07:00am 24.7 SSE 4 8 1011.9 - 2.2 - - - - - - -
23/06:30am 24.4 SSE 3 6 1011.7 - 2.2 - - - - - - -
23/06:00am 24.4 SSE 4 8 1011.7 - 2.2 - - - - - - -
23/05:30am 24.5 SSE 3 6 1011.7 - 2.2 - - - - - - -
23/05:00am 24.2 SSE 4 6 1011.6 - 2.2 - - - - - - -
23/04:30am 23.7 SE 4 13 1011.6 - 2.2 - - - - - - -
23/04:00am 23.7 SSE 4 8 1011.4 - 1.8 - - - - - - -
23/03:30am 25.2 SSE 3 10 1011.3 - 1.0 - - - - - - -
23/03:00am 25.4 SSE 3 6 1011.6 - 1.0 - - - - - - -
23/02:30am 25.4 SE 4 11 1011.9 - 1.0 - - - - - - -
23/02:00am 25.4 SSE 3 6 1012.1 - 1.0 - - - - - - -
23/01:30am 25.3 SSE 4 9 1012.3 - 1.0 - - - - - - -
23/01:00am 25.3 SSE 4 10 1012.4 - 1.0 - - - - - - -
23/12:30am 24.7 SSE 4 9 1012.6 - 1.0 - - - - - - -
23/12:00am 25.6 SE 4 10 1012.8 - 0.8 - - - - - - -
 
Date/Time
EST
Temp
°C
Wind Pressure Rain since
9am
mm
Weather Cloud Vis
km
Sea
Height
m
Swell
Dir  Spd
kts
Gust
kts
hPa Trend Height
m
Period
s
Dir
22/11:30pm 25.3 SE 5 11 1012.7 - 0.8 - - - - - - -
22/11:00pm 25.6 SSE 4 9 1012.8 - 0.8 - - - - - - -
22/10:30pm 25.4 SSE 4 10 1012.9 - 0.8 - - - - - - -
22/10:00pm 25.4 SSE 5 11 1013.0 - 0.8 - - - - - - -
22/09:30pm 25.3 SSE 3 7 1013.1 - 0.8 - - - - - - -
22/09:00pm 25.6 SSE 5 16 1013.0 - 0.8 Rain - - - - - -
22/08:30pm 25.9 SSE 4 11 1012.6 - 0.6 - - - - - - -
22/08:00pm 25.9 SSE 4 8 1012.5 - 0.6 - - - - - - -
22/07:30pm 25.9 SSE 4 10 1012.1 - 0.6 - - - - - - -
22/07:00pm 25.6 SSE 4 11 1011.8 - 0.6 - - - - - - -
22/06:30pm 25.3 SSE 3 5 1011.5 - 0.6 - - - - - - -
22/06:00pm 24.8 SE 3 8 1011.3 - 0.6 - - - - - - -
22/05:30pm 26.4 SSE 3 7 1010.9 - 0.6 - - - - - - -
22/05:00pm 26.5 SE 4 9 1010.7 - 0.6 - - - - - - -
22/04:30pm 26.8 SSE 3 8 1010.6 - 0.6 - - - - - - -
22/04:00pm 27.2 SE 3 6 1010.5 - 0.6 - - - - - - -
22/03:30pm 28.5 SE 4 11 1010.5 - 0.6 - - - - - - -
22/03:00pm 28.4 SE 4 10 1010.7 - 0.6 - - - - - - -
22/02:30pm 29.0 SE 4 13 1010.9 - 0.6 - - - - - - -
22/02:00pm 28.0 SE 4 11 1011.1 - 0.6 - - - - - - -
22/01:30pm 26.3 ESE 8 19 1011.6 - 0.6 - - - - - - -
22/01:00pm 26.5 SE 5 13 1011.9 - 0.4 - - - - - - -
22/12:30pm 27.7 SE 6 14 1012.2 - 0.4 - - - - - - -
22/12:00pm 26.1 SE 7 21 1012.6 - 0.4 Recent precip. - - - - - -
22/11:30am 27.5 ESE 6 13 1012.8 - 0.2 - - - - - - -
22/11:00am 27.6 SSE 4 11 1012.9 - 0.2 - - - - - - -
22/10:30am 27.4 SE 4 11 1013.1 - 0.2 - - - - - - -
22/10:00am 25.7 SE 6 11 1013.5 - 0.2 - - - - - - -
22/09:30am 26.4 SE 4 10 1013.6 - 0.0 - - - - - - -
22/09:00am 26.2 SE 4 9 1013.7 - 0.2 - - - - - - -
22/08:30am 26.5 SSE 4 11 1013.4 - 0.2 - - - - - - -
22/08:00am 26.1 SE 3 7 1013.2 - 0.2 - - - - - - -
22/07:30am 25.2 SE 4 7 1012.8 - 0.2 - - - - - - -
22/07:00am 24.9 SSE 4 9 1012.5 - 0.2 - - - - - - -
22/06:30am 25.5 SSE 3 5 1012.3 - 0.2 - - - - - - -
22/06:00am 25.5 SE 3 10 1012.2 - 0.2 - - - - - - -
22/05:30am 25.4 SE 4 8 1012.1 - 0.2 - - - - - - -
22/05:00am 25.4 SE 3 7 1011.9 - 0.2 - - - - - - -
22/04:30am 25.1 SE 5 9 1011.9 - 0.2 - - - - - - -
22/04:00am 25.3 SE 5 17 1011.7 - 0.2 - - - - - - -
22/03:30am 25.5 SE 3 11 1011.6 - 0.2 - - - - - - -
22/03:00am 25.4 SE 4 9 1011.8 - 0.2 - - - - - - -
22/02:30am 25.5 SE 4 8 1012.2 - 0.2 - - - - - - -
22/02:00am 25.6 SE 5 11 1012.6 - 0.2 - - - - - - -
22/01:30am 25.8 SE 5 13 1012.8 - 0.2 - - - - - - -
22/01:00am 25.9 SE 4 7 1013.1 - 0.2 - - - - - - -
22/12:30am 26.0 SSE 3 8 1013.2 - 0.2 - - - - - - -
22/12:00am 26.0 SSE 3 9 1013.4 - 0.2 - - - - - - -
 
Date/Time
EST
Temp
°C
Wind Pressure Rain since
9am
mm
Weather Cloud Vis
km
Sea
Height
m
Swell
Dir  Spd
kts
Gust
kts
hPa Trend Height
m
Period
s
Dir
21/11:30pm 25.9 SSE 4 11 1013.5 - 0.2 - - - - - - -
21/11:00pm 26.0 SSE 3 10 1013.7 - 0.2 - - - - - - -
21/10:30pm 25.9 SSE 4 10 1013.8 - 0.2 - - - - - - -
21/10:00pm 25.9 SSE 4 10 1013.8 - 0.2 - - - - - - -
21/09:30pm 25.9 SSE 4 9 1013.6 - 0.2 - - - - - - -
21/09:00pm 25.8 SSE 5 12 1013.5 - 0.2 - - - - - - -
21/08:30pm 25.7 SSE 5 8 1013.2 - 0.2 - - - - - - -

Other Formats:

Comma delimited format used in spreadsheet applications
http://www.bom.gov.au/fwo/IDQ60701/IDQ60701.94182.axf

JavaScript Object Notation format (JSON) in row-major order
http://www.bom.gov.au/fwo/IDQ60701/IDQ60701.94182.json